Mombasa, Kenya

2:36 PM EAT on February 24, 2017 (GMT +0300)
Moi

Weather History for HKMO - May, 2013

Change the Weather History Date:

Saturday, May 18, 2013

  Actual Average Record
Temperature  
Mean Temperature 76 °F -  
Max Temperature 85 °F 86 °F 89 °F (2002)
Min Temperature 68 °F 69 °F 68 °F (2013)
Cooling Degree Days 12    
Growing Degree Days 26 (Base 50)    
Moisture  
Dew Point 72 °F    
Average Humidity 82    
Maximum Humidity 94    
Minimum Humidity 56    
Precipitation  
Precipitation 0.00 in 0.19 in - ()
Sea Level Pressure  
Sea Level Pressure 30.00 in    
Wind  
Wind Speed 7 mph ()    
Max Wind Speed 16 mph    
Max Gust Speed -    
Visibility 7.9 miles    
Events Rain    
Averages and records for this station are not official NWS values.
T = Trace of Precipitation, MM = Missing Value Source: Averaged Metar Reports

Daily Weather History Graph

Daily Weather History Graph

Search for Another Location

Airport or City:

Trip Planner

Search our weather history database for the weather conditions in past years. The results will help you decide how hot, cold, wet, or windy it might be!

Date:

Astronomy

May. 18, 2013 Rise Set
Actual Time 6:20 AM EAT 6:15 PM EAT
Civil Twilight 5:58 AM EAT 6:37 PM EAT
Nautical Twilight 5:32 AM EAT 7:03 PM EAT
Astronomical Twilight 5:07 AM EAT 7:28 PM EAT
Moon 12:40 PM EAT (5/18) 12:12 AM EAT (5/18)
Length of Visible Light 12h 39m
Length of Day
11h 55m
First Quarter, 52% of the Moon is Illuminated
May 18
First Quarter
May 25
Full
May 31
Last Quarter
Jun 8
New
Jun 16
First Quarter

Hourly Weather History & Observations

Time (EAT) Temp. Heat Index Dew Point Humidity Pressure Visibility Wind Dir Wind Speed Gust Speed Precip Events Conditions
12:00 AM 75.2 °F - 71.6 °F 89% 30.01 in 6.2 mi SSW 3.5 mph - N/A   Partly Cloudy
1:00 AM 75.2 °F - 73.4 °F 94% 29.98 in 6.2 mi SSW 6.9 mph - N/A   Partly Cloudy
2:00 AM 75.2 °F - 71.6 °F 89% 29.98 in 6.2 mi South 6.9 mph - N/A   Partly Cloudy
5:00 AM 73.4 °F - 69.8 °F 88% 29.98 in 6.2 mi SSW 3.5 mph - N/A   Partly Cloudy
5:30 AM 73.4 °F - 71.6 °F 94% 29.98 in 6.2 mi SSE 3.5 mph - N/A   Partly Cloudy
7:00 AM 75.2 °F - 71.6 °F 89% 30.01 in 6.2 mi WSW 3.5 mph - N/A   Scattered Clouds
8:00 AM 75.2 °F - 73.4 °F 94% 30.04 in 6.2 mi South 9.2 mph - N/A Rain Rain Showers
9:00 AM 76 °F - 74 °F 90% 30.04 in 19 mi SW 16.1 mph - -   Mostly Cloudy
9:00 AM 75.2 °F - 73.4 °F 94% 30.04 in 6.2 mi SW 16.1 mph - N/A   Mostly Cloudy
10:00 AM 78.8 °F - 73.4 °F 83% 30.04 in 6.2 mi SSW 11.5 mph - N/A   Mostly Cloudy
11:00 AM 82.4 °F 89.5 °F 75.2 °F 79% 30.04 in 6.2 mi SSW 16.1 mph - N/A   Mostly Cloudy
2:00 PM 84.2 °F 94.1 °F 77.0 °F 79% 29.98 in 6.2 mi South 16.1 mph - N/A   Mostly Cloudy
3:00 PM 84 °F - 71 °F 56% 29.96 in 19 mi SSE 13.8 mph - -   Partly Cloudy
3:00 PM 84.2 °F 89.6 °F 71.6 °F 66% 29.95 in 6.2 mi SSE 13.8 mph - N/A   Mostly Cloudy
4:00 PM 84.2 °F 89.6 °F 71.6 °F 66% 29.95 in 6.2 mi SSW 11.5 mph - N/A   Mostly Cloudy
5:00 PM 82.4 °F 86.3 °F 69.8 °F 66% 29.95 in 6.2 mi SSE 11.5 mph - N/A   Scattered Clouds
6:00 PM 80.6 °F 84.6 °F 71.6 °F 74% 29.95 in 6.2 mi SSW 5.8 mph - N/A   Partly Cloudy
7:00 PM 80.6 °F 84.6 °F 71.6 °F 74% 29.98 in 6.2 mi South 3.5 mph - N/A   Partly Cloudy
8:00 PM 78.8 °F - 71.6 °F 78% 30.01 in 6.2 mi SSW 5.8 mph - N/A   Partly Cloudy
9:00 PM 78 °F - 72 °F 77% 30.00 in 19 mi SSW 8.1 mph - -   Scattered Clouds
10:00 PM 75.2 °F - 73.4 °F 94% 30.01 in 6.2 mi SW 6.9 mph - N/A   Partly Cloudy
11:00 PM 75.2 °F - 73.4 °F 94% 30.01 in 6.2 mi SSW 5.8 mph - N/A   Partly Cloudy